フィエチジョシュ彗星

C/2024 J2 ( Wierzchos )

English version
Home page
Updated on September 4, 2024

---------------------------------------------------------------------

・ プロフィール

発見日 2024年5月11日
発見光度 21.2等
発見者 Kacper W. Wierzchos (Mt. Lemmon Survey)

・ 写真集

・ 軌道要素

Epoch 2024 Oct. 17.0 TT = JDT 2460600.5
T 2025 Mar. 19.75287 TT                                 Rudenko
q   1.8107737            (2000.0)            P               Q
z  +0.0067063      Peri.  143.15590     +0.80782409     +0.56875252
 +/-0.0000018      Node   189.05998     -0.21966446     +0.53409603
e   0.9878563      Incl.   79.29585     +0.54696231     -0.62550940
>From 100 observations 2024 Mar. 18-Aug. 28, mean residual 0".6.

・ 星図

・ 光度変化

        m1 = 11.0 + 5 logΔ + 10.0 log r

---------------------------------------------------------------------

軌道要素はM.P.E.C. 2024-R10に掲載されたものです。
星図はステラナビゲータ Ver.11 (アストロアーツ) で作成したものです。
光度グラフはComet for Windowsで作成したものです。

---------------------------------------------------------------------

Copyright(C) Seiichi Yoshida (comet@aerith.net). All rights reserved.